| time (UTC) | temp C | wind direction | speed KPH | gust KPH | rain 1hr cm | rain 24hr cm | rain mn cm | humidity % | barometer mb |
| 20260506202816 | 13 | 308 | 19.3 | 29.0 | 0.00 | 0.20 | 0.20 | 29 | 1023.0 |
| 20260506201816 | 13 | 4 | 17.7 | 25.7 | 0.00 | 0.20 | 0.20 | 27 | 1022.9 |
| 20260506200816 | 13 | 47 | 16.1 | 29.0 | 0.00 | 0.20 | 0.20 | 30 | 1022.8 |
| 20260506195816 | 12 | 3 | 22.5 | 41.8 | 0.00 | 0.20 | 0.20 | 28 | 1022.5 |
| 20260506194816 | 12 | 350 | 22.5 | 41.8 | 0.00 | 0.20 | 0.20 | 27 | 1022.5 |
| 20260506193816 | 12 | 294 | 20.9 | 32.2 | 0.00 | 0.20 | 0.20 | 29 | 1022.4 |
| 20260506192816 | 12 | 2 | 24.1 | 41.8 | 0.00 | 0.20 | 0.20 | 28 | 1022.4 |
| 20260506191816 | 12 | 351 | 17.7 | 30.6 | 0.00 | 0.20 | 0.20 | 27 | 1022.4 |
| 20260506190815 | 11 | 25 | 16.1 | 22.5 | 0.00 | 0.20 | 0.20 | 27 | 1021.9 |
| 20260506185816 | 12 | 15 | 24.1 | 41.8 | 0.00 | 0.20 | 0.20 | 25 | 1022.7 |
| 20260506184816 | 11 | 18 | 8.0 | 27.4 | 0.00 | 0.20 | 0.20 | 26 | 1022.4 |
| 20260506183815 | 11 | 13 | 11.3 | 37.0 | 0.00 | 0.20 | 0.20 | 25 | 1022.2 |
| 20260506182816 | 11 | 347 | 16.1 | 33.8 | 0.00 | 0.20 | 0.20 | 24 | 1022.1 |
| 20260506181816 | 11 | 8 | 25.7 | 41.8 | 0.00 | 0.20 | 0.20 | 24 | 1022.2 |
| 20260506180816 | 11 | 4 | 16.1 | 40.2 | 0.00 | 0.20 | 0.20 | 25 | 1022.0 |
| 20260506175836 | 11 | 7 | 29.0 | 43.5 | 0.00 | 0.20 | 0.20 | 25 | 1021.9 |
| 20260506174815 | 11 | 351 | 14.5 | 32.2 | 0.00 | 0.20 | 0.20 | 29 | 1021.7 |
| 20260506173816 | 11 | 37 | 20.9 | 46.7 | 0.00 | 0.20 | 0.20 | 28 | 1021.3 |
| 20260506172836 | 11 | 2 | 17.7 | 43.5 | 0.00 | 0.20 | 0.20 | 27 | 1020.9 |
| 20260506171815 | 10 | 357 | 19.3 | 43.5 | 0.00 | 0.20 | 0.20 | 27 | 1020.7 |
| 20260506170815 | 10 | 353 | 24.1 | 49.9 | 0.00 | 0.20 | 0.20 | 26 | 1020.4 |
| 20260506165836 | 10 | 12 | 20.9 | 38.6 | 0.00 | 0.20 | 0.20 | 26 | 1020.4 |
| 20260506164816 | 10 | 17 | 19.3 | 33.8 | 0.00 | 0.20 | 0.20 | 28 | 1020.1 |
| 20260506163815 | 10 | 7 | 27.4 | 45.1 | 0.00 | 0.20 | 0.20 | 28 | 1020.0 |
| 20260506162816 | 10 | 359 | 17.7 | 41.8 | 0.00 | 0.20 | 0.20 | 26 | 1020.0 |
| 20260506161815 | 10 | 27 | 17.7 | 45.1 | 0.00 | 0.20 | 0.20 | 33 | 1019.9 |
| 20260506160836 | 10 | 27 | 16.1 | 35.4 | 0.00 | 0.20 | 0.20 | 34 | 1020.0 |
| 20260506155815 | 10 | 1 | 11.3 | 33.8 | 0.00 | 0.20 | 0.20 | 34 | 1020.0 |
| 20260506154815 | 10 | 329 | 20.9 | 40.2 | 0.00 | 0.20 | 0.20 | 33 | 1019.8 |
| 20260506153815 | 10 | 355 | 22.5 | 33.8 | 0.00 | 0.20 | 0.20 | 36 | 1019.8 |
| 20260506152815 | 10 | 9 | 6.4 | 24.1 | 0.00 | 0.20 | 0.20 | 37 | 1020.0 |
| 20260506151815 | 10 | 5 | 12.9 | 19.3 | 0.00 | 0.20 | 0.20 | 45 | 1020.0 |
| 20260506150815 | 10 | 38 | 11.3 | 27.4 | 0.00 | 0.20 | 0.20 | 43 | 1019.9 |
| 20260506145815 | 10 | 6 | 11.3 | 24.1 | 0.00 | 0.20 | 0.20 | 41 | 1020.1 |
| 20260506144815 | 10 | 334 | 14.5 | 22.5 | 0.00 | 0.20 | 0.20 | 42 | 1019.6 |
| 20260506143815 | 9 | 22 | 14.5 | 25.7 | 0.00 | 0.20 | 0.20 | 42 | 1019.6 |
| 20260506142815 | 9 | 322 | 4.8 | 8.0 | 0.00 | 0.20 | 0.20 | 44 | 1020.0 |
| 20260506141815 | 9 | 7 | 11.3 | 29.0 | 0.00 | 0.20 | 0.20 | 44 | 1019.8 |
| 20260506140815 | 9 | 15 | 8.0 | 14.5 | 0.00 | 0.20 | 0.20 | 46 | 1019.8 |
| 20260506135835 | 8 | 314 | 4.8 | 12.9 | 0.00 | 0.20 | 0.20 | 49 | 1019.6 |
| 20260506134835 | 8 | 29 | 4.8 | 16.1 | 0.00 | 0.20 | 0.20 | 50 | 1019.5 |
| 20260506133815 | 8 | 311 | 11.3 | 29.0 | 0.00 | 0.20 | 0.20 | 48 | 1019.4 |
| 20260506132815 | 8 | 18 | 4.8 | 12.9 | 0.00 | 0.20 | 0.20 | 52 | 1019.2 |
| 20260506131815 | 8 | 13 | 6.4 | 12.9 | 0.00 | 0.20 | 0.20 | 52 | 1019.1 |
| 20260506130815 | 7 | 332 | 11.3 | 17.7 | 0.00 | 0.20 | 0.20 | 52 | 1018.8 |
| 20260506125817 | 7 | 333 | 11.3 | 19.3 | 0.00 | 0.20 | 0.20 | 54 | 1018.6 |
| 20260506124815 | 7 | 331 | 17.7 | 22.5 | 0.00 | 0.20 | 0.20 | 55 | 1018.2 |
| 20260506123817 | 7 | 319 | 9.7 | 19.3 | 0.00 | 0.20 | 0.20 | 56 | 1017.9 |
| 20260506122835 | 7 | 321 | 16.1 | 24.1 | 0.00 | 0.20 | 0.20 | 58 | 1017.8 |
| 20260506121817 | 7 | 333 | 14.5 | 27.4 | 0.00 | 0.20 | 0.20 | 60 | 1017.4 |
| 20260506120817 | 6 | 344 | 16.1 | 22.5 | 0.00 | 0.20 | 0.20 | 61 | 1017.0 |
| 20260506115817 | 6 | 320 | 12.9 | 29.0 | 0.00 | 0.20 | 0.20 | 62 | 1016.9 |
| 20260506114818 | 6 | 331 | 11.3 | 16.1 | 0.00 | 0.20 | 0.20 | 63 | 1016.9 |
| 20260506113817 | 6 | 2 | 6.4 | 12.9 | 0.00 | 0.20 | 0.20 | 63 | 1016.8 |
| 20260506112817 | 6 | 281 | 8.0 | 14.5 | 0.00 | 0.20 | 0.20 | 64 | 1016.3 |
| 20260506111817 | 6 | 342 | 4.8 | 16.1 | 0.00 | 0.20 | 0.20 | 65 | 1016.2 |
| 20260506110817 | 6 | 316 | 12.9 | 19.3 | 0.00 | 0.20 | 0.20 | 66 | 1015.9 |
| 20260506105817 | 6 | 273 | 11.3 | 25.7 | 0.00 | 0.20 | 0.20 | 69 | 1015.2 |
| 20260506104817 | 6 | 301 | 9.7 | 14.5 | 0.00 | 0.20 | 0.20 | 70 | 1015.2 |
| 20260506103817 | 6 | 335 | 20.9 | 33.8 | 0.00 | 0.20 | 0.20 | 73 | 1015.1 |
| 20260506102837 | 6 | 287 | 12.9 | 20.9 | 0.00 | 0.20 | 0.20 | 80 | 1015.4 |
| 20260506101817 | 6 | 125 | 4.8 | 9.7 | 0.00 | 0.20 | 0.20 | 84 | 1014.9 |
| 20260506100817 | 5 | 246 | 1.6 | 8.0 | 0.05 | 0.20 | 0.20 | 86 | 1014.7 |
| 20260506095816 | 5 | 267 | 14.5 | 20.9 | 0.15 | 0.20 | 0.20 | 86 | 1014.6 |
| 20260506094837 | 6 | 300 | 11.3 | 16.1 | 0.20 | 0.20 | 0.20 | 87 | 1014.8 |
| 20260506093816 | 6 | 242 | 17.7 | 25.7 | 0.20 | 0.20 | 0.20 | 84 | 1014.6 |
| 20260506092816 | 6 | 39 | 12.9 | 19.3 | 0.20 | 0.20 | 0.20 | 85 | 1014.4 |
| 20260506091816 | 6 | 41 | 19.3 | 25.7 | 0.20 | 0.20 | 0.20 | 84 | 1014.4 |
| 20260506090837 | 6 | 6 | 19.3 | 43.5 | 0.15 | 0.15 | 0.15 | 82 | 1014.7 |
| 20260506085817 | 7 | 326 | 22.5 | 27.4 | 0.05 | 0.05 | 0.05 | 83 | 1014.7 |
| 20260506084817 | 7 | 301 | 14.5 | 17.7 | 0.00 | 0.00 | 0.00 | 82 | 1014.0 |
| 20260506083816 | 7 | 247 | 9.7 | 16.1 | 0.00 | 0.00 | 0.00 | 82 | 1013.4 |
| 20260506082816 | 8 | 241 | 6.4 | 14.5 | 0.00 | 0.00 | 0.00 | 81 | 1013.3 |
| 20260506081816 | 8 | 241 | 14.5 | 20.9 | 0.00 | 0.00 | 0.00 | 80 | 1013.4 |
| 20260506080816 | 8 | 257 | 9.7 | 12.9 | 0.00 | 0.00 | 0.00 | 78 | 1013.3 |
| 20260506072816 | 8 | 291 | 6.4 | 12.9 | 0.00 | 0.00 | 0.00 | 76 | 1013.5 |
| 20260506071816 | 8 | 279 | 12.9 | 19.3 | 0.00 | 0.00 | 0.00 | 75 | 1013.7 |
| 20260506070816 | 8 | 285 | 16.1 | 24.1 | 0.00 | 0.00 | 0.00 | 76 | 1013.7 |
| 20260506061816 | 9 | 271 | 17.7 | 20.9 | 0.00 | 0.00 | 0.00 | 69 | 1013.1 |
| 20260506060816 | 10 | 282 | 9.7 | 16.1 | 0.00 | 0.00 | 0.00 | 65 | 1013.2 |
| 20260506050856 | 8 | 328 | 0.0 | 1.6 | 0.00 | 0.00 | 0.00 | 69 | 1011.2 |
| 20260506044815 | 9 | 328 | 4.8 | 6.4 | 0.00 | 0.00 | 0.00 | 66 | 1011.5 |
| 20260506043815 | 8 | 333 | 6.4 | 9.7 | 0.00 | 0.00 | 0.00 | 69 | 1011.2 |
| 20260506042815 | 8 | 333 | 3.2 | 4.8 | 0.00 | 0.00 | 0.00 | 70 | 1011.2 |
| 20260506041815 | 8 | 333 | 3.2 | 4.8 | 0.00 | 0.00 | 0.00 | 68 | 1010.9 |
| 20260506040815 | 8 | 331 | 4.8 | 6.4 | 0.00 | 0.00 | 0.00 | 67 | 1011.1 |
| 20260506035815 | 9 | 331 | 4.8 | 6.4 | 0.00 | 0.00 | 0.00 | 66 | 1011.4 |
| 20260506034815 | 8 | 316 | 9.7 | 16.1 | 0.00 | 0.00 | 0.00 | 67 | 1011.4 |
| 20260506033815 | 9 | 333 | 3.2 | 6.4 | 0.00 | 0.00 | 0.00 | 66 | 1011.0 |
| 20260506032815 | 9 | 329 | 4.8 | 6.4 | 0.00 | 0.00 | 0.00 | 65 | 1011.0 |
| 20260506031835 | 10 | 117 | 4.8 | 6.4 | 0.00 | 0.00 | 0.00 | 64 | 1011.0 |
| 20260506030837 | 10 | 117 | 0.0 | 3.2 | 0.00 | 0.00 | 0.00 | 63 | 1011.1 |
| 20260506025817 | 10 | 117 | 1.6 | 3.2 | 0.00 | 0.00 | 0.00 | 62 | 1011.3 |
| 20260506024817 | 10 | 117 | 0.0 | 1.6 | 0.00 | 0.00 | 0.00 | 61 | 1011.3 |
| 20260506023817 | 10 | 117 | 3.2 | 4.8 | 0.00 | 0.00 | 0.00 | 59 | 1011.0 |
| 20260506022817 | 11 | 117 | 1.6 | 3.2 | 0.00 | 0.00 | 0.00 | 57 | 1011.7 |
| 20260506021817 | 12 | 117 | 4.8 | 6.4 | 0.00 | 0.00 | 0.00 | 56 | 1011.5 |
| 20260506020817 | 12 | 112 | 4.8 | 6.4 | 0.00 | 0.00 | 0.00 | 55 | 1011.4 |
| 20260506015837 | 12 | 110 | 4.8 | 9.7 | 0.00 | 0.00 | 0.00 | 54 | 1011.7 |
| 20260506014817 | 12 | 132 | 3.2 | 6.4 | 0.00 | 0.00 | 0.00 | 54 | 1011.7 |
| 20260506013817 | 12 | 112 | 6.4 | 11.3 | 0.00 | 0.00 | 0.00 | 53 | 1011.8 |
| 20260506012815 | 12 | 112 | 3.2 | 11.3 | 0.00 | 0.00 | 0.00 | 52 | 1011.6 |
| 20260506011816 | 12 | 100 | 6.4 | 11.3 | 0.00 | 0.00 | 0.00 | 52 | 1011.6 |
| 20260506010817 | 13 | 112 | 4.8 | 8.0 | 0.00 | 0.00 | 0.00 | 52 | 1011.8 |
| 20260506005816 | 13 | 100 | 8.0 | 14.5 | 0.00 | 0.00 | 0.00 | 52 | 1012.0 |
| 20260506004816 | 13 | 113 | 9.7 | 12.9 | 0.00 | 0.00 | 0.00 | 52 | 1011.8 |
| 20260506003858 | 13 | 83 | 3.2 | 9.7 | 0.00 | 0.00 | 0.00 | 53 | 1011.8 |
| 20260506002816 | 13 | 90 | 6.4 | 12.9 | 0.00 | 0.00 | 0.00 | 53 | 1011.7 |
| 20260506001817 | 13 | 86 | 6.4 | 11.3 | 0.00 | 0.00 | 0.00 | 52 | 1011.9 |
| 20260506000816 | 13 | 132 | 4.8 | 9.7 | 0.00 | 0.00 | 0.00 | 53 | 1011.6 |
| 20260505235816 | 12 | 113 | 9.7 | 16.1 | 0.00 | 0.00 | 0.00 | 53 | 1011.4 |
| 20260505234817 | 12 | 116 | 6.4 | 11.3 | 0.00 | 0.00 | 0.00 | 53 | 1011.5 |
| 20260505233816 | 12 | 134 | 3.2 | 9.7 | 0.00 | 0.00 | 0.00 | 56 | 1011.6 |
| 20260505232816 | 12 | 90 | 11.3 | 12.9 | 0.00 | 0.00 | 0.00 | 57 | 1011.6 |
| 20260505231816 | 11 | 88 | 11.3 | 14.5 | 0.00 | 0.00 | 0.00 | 58 | 1011.4 |
| 20260505230816 | 11 | 69 | 8.0 | 11.3 | 0.00 | 0.00 | 0.00 | 58 | 1011.5 |
| 20260505225817 | 11 | 83 | 4.8 | 11.3 | 0.00 | 0.00 | 0.00 | 58 | 1011.6 |
| 20260505224816 | 11 | 87 | 6.4 | 11.3 | 0.00 | 0.00 | 0.00 | 59 | 1011.6 |
| 20260505223816 | 11 | 80 | 4.8 | 12.9 | 0.00 | 0.00 | 0.00 | 60 | 1011.5 |
| 20260505222816 | 11 | 90 | 8.0 | 14.5 | 0.00 | 0.00 | 0.00 | 58 | 1012.0 |
| 20260505221816 | 11 | 70 | 8.0 | 12.9 | 0.00 | 0.00 | 0.00 | 54 | 1012.0 |
| 20260505220816 | 11 | 108 | 6.4 | 9.7 | 0.00 | 0.00 | 0.00 | 55 | 1012.0 |
| 20260505215816 | 11 | 91 | 8.0 | 14.5 | 0.00 | 0.00 | 0.00 | 54 | 1011.6 |
| 20260505214816 | 11 | 85 | 6.4 | 12.9 | 0.00 | 0.00 | 0.00 | 54 | 1011.6 |
| 20260505213816 | 11 | 131 | 4.8 | 11.3 | 0.00 | 0.00 | 0.00 | 55 | 1011.5 |
| 20260505212836 | 11 | 145 | 4.8 | 17.7 | 0.00 | 0.00 | 0.00 | 56 | 1012.0 |
| 20260505211816 | 11 | 77 | 9.7 | 14.5 | 0.00 | 0.00 | 0.00 | 60 | 1012.1 |
| 20260505210816 | 11 | 78 | 6.4 | 11.3 | 0.00 | 0.00 | 0.00 | 58 | 1012.0 |
| 20260505205816 | 11 | 113 | 6.4 | 11.3 | 0.00 | 0.00 | 0.00 | 58 | 1012.0 |
| 20260505204816 | 11 | 110 | 3.2 | 8.0 | 0.00 | 0.00 | 0.00 | 59 | 1011.7 |
| 20260505203836 | 11 | 125 | 9.7 | 17.7 | 0.00 | 0.00 | 0.00 | 58 | 1011.8 |